DateTimeUTC,F1_A11,F1_S11,BsB_S11,BsG_S11,BsR_S11,BbsB_S11,BbsG_S11,BbsR_S11,BaB_A11,BaG_A11,BaR_A11,Tu_S11,T_S11,Uu_S11,U_S11,P_S11,T1_A11
2021-03-20T16:00:00Z,00000200,21000000,,,,,,,0000.10,0000.09,0000.14,17.0,24.2,,00.0,0642.5,30.9
2021-03-20T16:01:00Z,00000200,21000000,,,,,,,-000.11,0000.03,0000.14,17.0,24.2,,00.0,0642.5,31.0
2021-03-20T16:02:00Z,00000200,21000000,,,,,,,-000.29,0000.00,-000.31,17.0,24.2,,00.0,0642.5,31.0
2021-03-20T16:03:00Z,00000200,61000000,,,,,,,0000.76,0000.29,0000.42,17.0,24.2,,00.0,0642.5,30.9
2021-03-20T16:04:00Z,00000200,41000000,0001.42,0001.27,0000.84,0000.08,0000.03,-000.17,0000.60,0000.33,0000.55,17.0,24.0,,00.0,0643.3,30.9
2021-03-20T16:05:00Z,00000200,01000000,0001.18,0001.05,0000.44,0000.25,0000.38,0000.07,0000.70,0000.90,0000.24,17.1,23.9,,00.0,0643.4,30.9
2021-03-20T16:06:00Z,00000200,01000000,0001.31,0001.09,0000.74,0000.89,0000.34,0000.24,0000.83,0000.46,0000.84,17.1,23.9,,00.0,0643.4,30.9
2021-03-20T16:07:00Z,00000200,01000000,0001.23,0001.14,0000.50,0000.49,-000.01,0000.16,0000.60,0000.71,0000.46,17.1,23.9,,00.0,0643.4,31.0
2021-03-20T16:08:00Z,00000200,01000000,0001.36,0000.98,0000.66,-000.46,0000.28,-000.10,0000.77,0000.84,0000.10,17.2,23.9,,00.0,0643.4,31.0
2021-03-20T16:09:00Z,00000200,01000000,0001.37,0001.38,0000.58,-000.43,0000.23,0000.15,0000.66,0000.31,0000.87,17.2,24.0,,00.0,0643.4,31.0
2021-03-20T16:10:00Z,00000200,01000000,0001.51,0001.28,0000.63,-000.20,0000.31,0000.27,0000.63,0000.84,0000.41,17.3,24.0,,00.0,0643.4,31.0
2021-03-20T16:11:00Z,00000200,01000000,0000.91,0001.12,0000.65,0000.21,0000.12,-000.09,0001.12,0000.79,0000.62,17.4,24.0,,00.0,0643.4,31.0
2021-03-20T16:12:00Z,00000200,01000000,0001.41,0000.99,0000.63,0000.43,0000.12,0000.15,0000.26,0000.83,0000.42,17.5,24.1,,00.0,0643.5,31.0
2021-03-20T16:13:00Z,00000200,01000000,0001.74,0001.29,0000.77,0000.65,0000.40,-000.07,0000.59,0000.39,0000.19,17.5,24.1,,00.0,0643.5,31.0
2021-03-20T16:14:00Z,00000200,01000000,0001.49,0001.07,0000.75,0000.49,0000.11,0000.10,0000.49,0000.55,0000.75,17.6,24.2,,00.0,0643.5,31.0
2021-03-20T16:15:00Z,00000200,01000000,0000.77,0001.16,0000.46,-000.23,0000.17,0000.17,0000.42,0000.32,-000.14,17.7,24.2,,00.0,0643.5,31.0
2021-03-20T16:16:00Z,00000200,01000000,0001.50,0001.42,0000.74,0000.32,0000.24,0000.09,0000.58,0000.76,0000.41,17.6,24.2,,00.0,0643.5,31.0
2021-03-20T16:17:00Z,00000200,01000000,0000.76,0001.23,0000.73,0000.34,0000.41,-000.17,0000.52,0000.19,0000.17,17.6,24.2,,00.0,0643.5,31.0
2021-03-20T16:18:00Z,00000200,01000000,0001.40,0001.21,0000.46,0000.20,0000.31,0000.00,0000.40,0000.04,0000.38,17.6,24.2,,00.0,0643.6,31.0
2021-03-20T16:19:00Z,00000200,01000000,0001.67,0000.89,0000.53,0000.51,0000.38,-000.01,0000.58,0000.40,0000.34,17.6,24.2,,00.0,0643.5,31.0
2021-03-20T16:20:00Z,00000200,01000000,0001.85,0001.21,0000.59,0000.58,0000.17,-000.10,0000.80,0000.92,0000.60,17.6,24.2,,00.0,0643.5,31.0
2021-03-20T16:21:00Z,00000200,01000000,0001.42,0001.15,0000.78,0000.24,-000.01,0000.09,0000.51,0000.88,0000.58,17.6,24.2,,00.0,0643.5,31.0
2021-03-20T16:22:00Z,00000200,01000000,0001.56,0001.13,0000.53,0000.12,0000.26,0000.08,0000.84,0000.38,0000.37,17.6,24.2,,00.0,0643.5,31.0
2021-03-20T16:23:00Z,00000200,01000000,0001.47,0001.10,0000.70,0000.57,0000.40,-000.04,0000.69,0000.67,0000.67,17.6,24.2,,00.0,0643.5,31.0
2021-03-20T16:24:00Z,00000200,01000000,0001.39,0001.45,0000.50,0000.72,0000.47,0000.14,0000.52,0000.41,-000.15,17.7,24.2,,00.0,0643.6,31.0
2021-03-20T16:25:00Z,00000200,01000000,0001.09,0001.38,0000.63,0000.44,0000.21,-000.00,0000.31,0000.45,0000.50,17.7,24.3,,00.0,0643.5,31.0
2021-03-20T16:26:00Z,00000200,01000000,0001.62,0001.35,0000.66,-000.01,0000.42,-000.19,0000.72,0000.69,0000.58,17.7,24.3,,00.0,0643.5,31.0
2021-03-20T16:27:00Z,00000200,01000000,0001.85,0001.12,0000.57,0000.98,0000.02,-000.29,0000.55,0000.14,-000.05,17.7,24.3,,00.0,0643.5,31.0
2021-03-20T16:28:00Z,00000200,01000000,0001.56,0001.43,0000.59,-000.08,0000.26,0000.25,0000.58,0000.94,0000.45,17.7,24.3,,00.0,0643.6,31.0
2021-03-20T16:29:00Z,00000200,01000000,0001.28,0000.95,0000.70,0000.41,0000.16,0000.04,0000.63,0000.19,0000.44,17.7,24.3,,00.0,0643.6,31.0
2021-03-20T16:30:00Z,00000200,01000000,0000.92,0000.94,0000.86,0000.40,0000.33,0000.17,0000.86,0000.78,0000.49,17.6,24.3,,00.0,0643.6,31.0
2021-03-20T16:31:00Z,00000200,01000000,0001.39,0001.23,0000.71,0000.13,0000.40,0000.23,0000.19,0000.49,0000.22,17.6,24.2,,00.0,0643.6,31.0
2021-03-20T16:32:00Z,00000200,01000000,0000.79,0001.17,0000.73,0000.40,0000.40,0000.12,0000.79,0000.64,0000.32,17.6,24.2,,00.0,0643.6,31.0
2021-03-20T16:33:00Z,00000200,01000000,0000.87,0001.08,0000.62,0000.29,0000.26,0000.01,0000.58,0000.49,0000.60,17.6,24.2,,00.0,0643.6,31.0
2021-03-20T16:34:00Z,00000200,01000000,0001.85,0001.15,0000.70,0000.25,0000.02,0000.18,0000.40,0000.55,0000.15,17.5,24.2,,00.0,0643.6,31.0
2021-03-20T16:35:00Z,00000200,01000000,0001.71,0001.03,0000.46,0000.22,0000.20,-000.28,0000.55,0000.32,0000.28,17.5,24.2,,00.0,0643.6,31.0
2021-03-20T16:36:00Z,00000200,01000000,0001.11,0000.93,0000.50,0000.22,0000.10,-000.03,0000.90,0000.27,0000.63,17.5,24.2,,00.0,0643.6,31.0
2021-03-20T16:37:00Z,00000200,01000000,0001.56,0001.34,0000.76,0000.06,0000.12,-000.04,0000.34,0000.58,0000.19,17.5,24.2,,00.0,0643.6,31.0
2021-03-20T16:38:00Z,00000200,01000000,0001.12,0001.35,0000.59,0000.47,0000.03,0000.10,0000.46,0000.65,0000.24,17.5,24.2,,00.0,0643.7,30.9
2021-03-20T16:39:00Z,00000200,01000000,0001.40,0001.35,0000.58,0000.12,0000.26,0000.07,0000.78,0000.30,0000.66,17.4,24.1,,00.0,0643.6,31.0
2021-03-20T16:40:00Z,00000200,01000000,0001.63,0001.03,0000.68,0000.12,0000.25,-000.06,0000.52,0000.66,0000.39,17.4,24.1,,00.0,0643.6,31.0
2021-03-20T16:41:00Z,00000200,01000000,0001.77,0001.20,0000.61,-000.21,0000.33,0000.20,0000.44,0000.30,0000.36,17.4,24.1,,00.0,0643.6,31.0
2021-03-20T16:42:00Z,00000200,01000000,0001.78,0001.31,0000.41,0000.29,0000.33,-000.01,0000.71,0000.50,0000.54,17.3,24.1,,00.0,0643.6,31.0
2021-03-20T16:43:00Z,00000200,01000000,0001.72,0001.10,0000.53,-000.04,0000.33,0000.19,0000.78,0000.83,0000.14,17.3,24.1,,00.0,0643.6,31.0
2021-03-20T16:44:00Z,00000200,01000000,0000.65,0001.07,0000.72,0000.29,0000.09,0000.17,0000.67,0000.23,0000.51,17.3,24.1,,00.0,0643.6,30.9
2021-03-20T16:45:00Z,00000200,01000000,0001.79,0001.07,0000.59,0000.51,0000.18,0000.19,-000.02,0000.93,0000.41,17.3,24.0,,00.0,0643.6,30.9
2021-03-20T16:46:00Z,00000200,01000000,0001.48,0001.10,0000.48,0000.37,0000.37,-000.03,0000.90,-000.19,0000.44,17.2,24.0,,00.0,0643.6,30.9
2021-03-20T16:47:00Z,00000200,01000000,0000.95,0001.26,0000.82,0000.34,0000.27,0000.27,0000.43,0000.79,0000.34,17.2,24.0,,00.0,0643.6,30.9
2021-03-20T16:48:00Z,00000200,01000000,0000.98,0001.19,0000.93,-000.23,0000.26,0000.02,0000.66,0000.59,0000.32,17.2,24.0,,00.0,0643.6,30.9
2021-03-20T16:49:00Z,00000200,01000000,0001.76,0000.98,0000.51,-000.17,0000.19,-000.09,0000.42,0000.50,0000.05,17.2,24.0,,00.0,0643.6,30.9
2021-03-20T16:50:00Z,00000200,01000000,0001.05,0001.11,0000.67,0000.48,0000.01,0000.21,0000.82,0000.71,0000.93,17.1,24.0,,00.0,0643.6,30.9
2021-03-20T16:51:00Z,00000200,01000000,0001.12,0001.18,0000.68,0000.15,0000.16,0000.12,0000.66,0000.54,0000.44,17.1,24.0,,00.0,0643.6,30.9
2021-03-20T16:52:00Z,00000200,01000000,0001.42,0001.12,0000.79,0000.67,0000.38,-000.13,0000.60,0000.63,0000.23,17.2,23.9,,00.0,0643.6,31.0
2021-03-20T16:53:00Z,00000200,01000000,0001.57,0001.33,0000.45,-000.11,0000.26,-000.02,0000.70,0000.30,0000.64,17.2,24.0,,00.0,0643.6,31.0
2021-03-20T16:54:00Z,00000200,01000000,0001.15,0001.46,0000.90,0000.32,0000.13,0000.44,0000.76,0001.10,0000.32,17.3,24.0,,00.0,0643.5,31.0
2021-03-20T16:55:00Z,00000200,01000000,0001.45,0001.04,0000.42,0000.68,0000.20,-000.18,0000.33,0000.41,0000.46,17.3,24.0,,00.0,0643.6,31.0
2021-03-20T16:56:00Z,00000200,01000000,0001.63,0001.13,0000.30,0000.68,0000.25,0000.06,0000.47,0000.16,-000.06,17.3,24.0,,00.0,0643.6,31.0
2021-03-20T16:57:00Z,00000200,41000000,,,,,,,0000.71,0000.26,0000.29,17.3,24.1,,00.0,0643.6,31.0
2021-03-20T16:58:00Z,00000200,61000000,,,,,,,0000.03,0000.05,0000.22,17.0,24.2,,00.0,0642.6,31.0
2021-03-20T16:59:00Z,00000200,21000000,,,,,,,-000.47,0000.01,-000.07,17.0,24.2,,00.0,0642.6,31.0
